Theta_e
308 309 311 311 312 314 317 322 327 331 330 333 332 332 331 327 331 336 334 330 339 344 342 343 346 347 347 348 348 348 347 347 347 347 347 347 347 346 345 345 345 345 345 343
308 308 311 313 313 314 316 318 319 321 324 325 335 337 337 342 342 343 343 344 339 335 343 342 342 345 345 346 346 346 346 346 346 347 347 347 347 346 346 344 345 345 345 345
307 311 313 316 316 316 319 321 322 325 326 328 335 342 339 339 339 340 342 343 346 341 333 334 335 338 343 343 345 346 344 345 346 346 347 346 347 347 346 346 345 345 345 345
308 308 317 319 321 318 321 321 321 322 324 326 338 341 339 331 330 337 340 342 344 346 334 329 335 344 344 347 345 346 344 345 346 346 346 347 347 347 346 346 346 344 344 345
310 317 318 322 319 320 323 321 318 320 322 325 333 341 342 328 329 329 337 343 345 347 333 330 342 344 344 345 345 346 345 345 346 345 346 346 347 346 346 346 345 344 343 343
310 316 326 320 316 315 318 325 314 315 318 323 338 348 333 325 330 339 340 346 346 340 341 341 343 346 344 345 345 344 344 345 346 346 345 345 345 346 346 346 345 344 343 341
310 312 315 311 311 316 326 322 313 313 314 318 324 323 322 329 334 337 342 347 350 345 345 342 344 346 343 345 344 344 345 346 346 346 346 346 346 346 346 347 346 346 346 345
310 312 317 309 312 321 316 314 313 313 313 315 316 318 321 328 333 342 344 345 347 347 346 346 344 344 344 344 345 345 346 346 346 347 346 347 348 348 348 348 348 348 348 349
314 315 310 311 311 312 315 315 315 313 314 313 314 316 318 320 327 332 345 344 347 348 346 346 346 346 346 346 346 346 346 347 346 347 347 348 348 349 349 350 350 350 351 351
310 311 311 310 312 314 313 315 314 314 314 313 313 315 316 317 316 318 335 344 344 347 348 348 346 346 346 346 346 346 346 347 347 348 348 349 349 349 350 351 351 353 354 354
310 309 311 311 311 313 313 314 314 314 314 314 314 313 315 316 316 315 316 327 341 346 345 347 348 351 354 355 353 349 349 349 349 351 351 351 351 355 352 352 354 353 353 356
311 308 310 310 310 310 313 314 314 313 313 314 315 314 313 315 316 316 315 314 314 319 343 344 344 342 342 343 348 353 355 354 354 353 353 353 355 354 354 355 355 355 355 355
307 307 308 308 309 309 310 313 314 313 313 314 315 315 314 313 315 315 315 314 314 313 314 331 344 343 343 340 338 339 342 347 352 346 343 347 354 354 355 355 356 356 356 357
305 306 307 307 307 308 309 312 312 313 313 313 313 315 314 313 314 316 316 315 314 314 314 314 319 338 343 342 339 341 345 335 345 344 351 352 352 349 348 349 353 354 355 357
305 305 306 307 305 307 309 311 312 312 314 314 313 314 315 314 314 317 316 315 314 314 313 314 312 319 328 340 340 338 342 345 346 349 349 346 346 350 353 354 354 352 354 355
304 305 305 306 305 304 305 307 307 309 312 313 314 314 314 314 316 318 317 315 314 314 313 313 313 312 314 323 340 339 338 340 342 343 348 350 351 356 361 361 360 359 358 359
304 304 303 304 304 303 303 303 304 306 308 310 310 313 314 314 314 314 314 314 314 314 314 314 313 313 312 315 331 340 338 338 340 342 343 346 350 356 360 355 356 356 356 353
303 303 302 302 302 302 303 303 303 305 305 307 308 309 311 312 311 312 313 314 314 314 314 314 313 312 312 313 323 331 338 338 337 341 342 341 342 348 353 354 351 350 348 346
303 303 302 301 301 302 302 302 303 304 304 305 306 307 307 307 309 310 310 311 312 312 314 315 315 313 313 312 314 315 321 330 336 338 342 341 340 342 346 351 349 346 343 342
305 303 303 302 301 301 302 301 302 303 304 304 304 305 305 305 307 308 308 308 309 309 311 313 315 315 316 315 316 315 323 334 335 337 341 341 340 340 340 344 346 343 340 337
307 305 304 303 303 302 302 301 301 301 302 303 305 305 305 305 305 305 307 307 307 308 310 311 312 314 316 317 319 323 331 336 336 338 339 340 340 341 341 342 342 339 336 334
307 307 306 303 303 303 301 301 301 300 300 301 300 301 302 303 304 304 304 305 306 307 307 308 310 312 317 318 320 323 326 329 332 333 334 335 335 337 337 337 336 335 333 332
304 304 306 305 302 300 300 300 301 301 301 299 301 301 301 302 301 301 302 303 305 306 306 305 307 310 313 315 318 322 322 323 325 328 329 331 332 331 331 330 330 330 331 327
304 303 303 302 300 300 299 299 299 299 299 299 300 300 300 301 302 302 301 300 303 304 305 305 304 305 308 309 310 311 312 316 317 318 320 320 318 319 321 317 317 318 315 318
303 301 302 300 300 300 299 299 299 299 299 299 299 300 300 300 301 301 302 302 300 302 303 304 304 304 303 302 302 302 302 302 303 305 306 306 305 302 302 302 301 304 301 301
301 301 301 300 300 299 299 299 299 299 299 300 300 299 300 300 300 301 301 301 301 299 300 301 301 301 302 302 302 301 301 300 300 300 300 300 300 300 299 297 297 298 298 298
301 301 300 300 300 299 299 299 300 299 299 298 300 299 299 300 300 300 301 301 301 300 299 298 299 301 301 300 300 300 300 299 299 299 299 298 298 298 299 298 297 294 293 294
Wind_Speed
16 19 18 21 21 15 11 10 12 17 10 19 18 17 20 10 10 8 9 12 20 28 36 41 43 44 46 47 48 45 46 46 46 43 42 41 40 37 33 32 33 34 33 33
19 19 18 21 22 19 17 18 10 14 14 8 9 8 5 4 9 14 14 14 15 23 30 38 42 47 48 48 49 47 46 44 41 40 40 41 40 39 36 33 33 34 36 35
11 13 14 15 24 19 13 6 13 13 7 10 8 1 6 7 9 13 17 19 18 22 30 39 42 44 49 48 49 50 46 42 40 39 40 39 38 39 38 36 34 35 36 37
10 13 8 3 10 16 11 5 2 5 6 9 6 7 9 12 12 15 19 22 23 24 27 35 39 39 42 42 49 50 46 41 39 39 38 37 38 38 37 36 36 36 36 37
5 7 10 10 6 5 3 6 7 4 6 8 8 9 3 18 15 15 18 22 24 23 27 30 37 41 44 43 46 46 43 41 38 36 34 34 35 35 34 35 36 36 36 37
6 6 5 6 13 13 6 4 9 8 9 10 7 8 4 20 17 16 15 17 17 14 20 28 36 40 43 41 43 42 40 41 39 37 35 34 31 30 30 31 32 32 34 35
12 8 8 9 24 4 6 5 8 10 11 13 9 6 9 17 20 16 15 14 6 12 23 30 35 37 35 37 38 36 37 40 37 34 32 31 31 31 33 33 33 34 34 35
7 6 8 20 11 1 6 5 9 12 14 13 11 11 14 21 26 29 28 21 13 11 21 25 26 27 31 33 33 32 33 33 31 31 30 31 33 33 32 32 33 33 33 33
4 1 7 11 11 7 9 10 9 11 13 14 14 16 18 24 33 35 33 30 24 16 17 20 23 24 25 25 27 26 27 27 27 27 27 29 29 30 29 30 30 30 30 30
3 2 11 3 6 15 12 13 11 10 11 13 16 20 22 25 34 38 36 34 27 28 27 22 13 11 12 15 18 22 25 26 25 25 27 28 28 28 29 29 30 29 28 27
3 4 9 7 15 19 14 13 11 11 9 10 14 18 21 23 29 33 36 37 34 31 29 28 24 21 17 11 10 18 20 22 24 25 25 25 25 25 28 28 27 27 27 24
3 13 8 8 18 18 15 15 13 13 13 10 12 15 17 19 21 25 29 29 33 32 27 23 21 19 17 14 12 11 10 14 16 17 21 18 21 27 26 25 24 24 24 24
11 18 11 17 10 20 17 18 15 13 13 14 13 13 13 12 16 18 20 23 26 27 24 21 19 16 14 13 10 5 3 2 5 13 11 32 38 27 26 25 26 24 23 24
27 22 19 23 17 22 21 21 17 15 16 13 13 12 12 11 11 14 16 17 18 20 20 20 17 14 12 12 12 9 4 4 6 11 25 17 18 15 14 17 19 22 24 24
21 19 16 17 20 25 24 23 26 25 24 21 14 13 12 11 10 12 11 13 15 16 15 16 17 15 13 8 8 10 7 1 4 3 2 4 6 9 13 16 18 18 18 19
20 19 18 20 19 22 24 24 21 24 23 21 20 17 10 9 6 6 9 14 18 18 18 18 16 15 14 11 6 6 9 8 8 9 6 4 6 9 12 14 14 13 13 14
19 25 25 27 25 24 24 21 23 23 21 22 20 13 9 7 9 11 12 12 14 16 17 19 19 15 14 13 9 6 7 8 7 6 5 3 6 10 13 13 13 15 16 16
13 15 20 22 25 23 20 22 23 22 21 19 16 15 16 15 14 15 16 19 19 17 21 22 19 16 13 15 13 10 10 9 9 10 9 5 5 7 9 12 14 17 19 20
10 13 17 20 21 21 26 24 23 23 23 21 18 19 18 17 13 11 13 16 17 19 20 19 19 18 16 14 18 19 17 14 13 15 13 9 5 5 8 11 13 16 16 17
5 8 11 13 18 21 20 25 24 26 21 25 26 22 23 23 20 20 21 22 19 17 20 20 18 18 17 16 17 21 21 16 14 17 18 17 13 9 9 11 15 17 16 16
5 5 7 10 12 15 16 19 20 22 23 22 19 22 23 23 25 24 25 29 29 22 19 19 19 17 10 16 17 19 17 15 16 19 20 21 20 19 18 18 20 19 17 16
5 6 6 11 13 13 14 15 13 16 18 17 21 25 26 23 20 20 22 24 29 29 17 16 16 18 13 8 16 16 16 15 14 15 18 20 20 21 22 24 24 22 18 15
2 4 4 4 8 12 10 12 13 13 12 13 11 12 14 15 21 25 28 24 18 24 34 24 19 16 13 11 11 12 13 16 15 17 19 20 22 23 24 24 24 23 23 24
3 4 3 2 6 8 8 10 12 12 10 11 13 14 17 12 13 19 21 24 23 17 24 35 23 15 10 7 7 8 10 11 12 15 18 19 19 22 25 23 24 25 24 26
1 3 2 2 5 7 9 12 13 11 11 12 14 14 13 14 15 13 16 18 24 23 22 22 27 36 37 37 37 32 31 30 27 26 26 26 28 27 26 26 25 27 22 22
4 2 2 1 4 6 7 9 13 12 12 9 10 13 11 11 11 10 12 16 19 22 24 26 25 28 30 33 34 36 37 36 35 33 33 32 30 27 25 23 20 19 16 15
5 3 2 2 3 5 6 9 10 11 11 8 9 12 11 7 8 11 10 13 16 18 19 23 22 22 26 27 28 29 29 29 29 29 28 26 25 23 20 18 17 13 13 12
Wind_Direction
285 292 287 271 266 265 250 249 226 223 245 237 237 246 248 253 285 273 247 224 215 218 221 219 211 219 216 217 223 218 222 223 225 228 230 232 234 234 231 231 235 236 238 240
292 292 264 251 253 247 245 242 249 263 273 253 292 293 236 309 307 295 289 276 247 231 226 222 221 217 221 219 223 222 221 221 224 226 227 228 230 231 231 229 231 235 236 238
277 300 303 258 243 229 225 193 200 203 222 313 288 15 25 360 331 306 296 288 274 253 233 231 229 227 220 221 219 221 221 219 220 224 226 227 228 230 231 231 233 234 236 238
280 300 232 233 349 182 142 120 219 245 282 300 249 133 59 16 337 312 302 291 279 265 245 231 226 213 213 208 216 218 219 218 220 223 224 225 226 228 230 232 235 235 236 238
253 254 301 181 44 32 334 77 30 334 333 306 244 219 258 360 340 316 302 292 278 257 233 227 206 201 209 209 214 216 218 217 219 220 220 222 225 227 229 232 234 236 237 238
248 257 238 45 342 332 295 136 21 7 15 351 203 190 9 344 351 347 329 312 290 234 204 200 194 190 204 207 211 216 217 218 218 218 217 221 223 225 229 233 237 240 241 241
242 252 287 354 326 284 201 85 354 9 20 30 60 30 329 9 24 19 10 359 354 176 192 199 190 189 205 210 217 218 215 219 220 219 220 218 218 221 224 227 231 234 237 241
225 246 257 355 345 102 355 296 341 360 13 18 11 12 23 33 41 46 46 37 54 134 164 179 193 200 206 214 218 218 219 222 222 222 222 223 224 227 229 232 235 238 240 242
232 271 303 310 305 298 342 323 329 341 354 10 7 14 22 30 45 46 52 49 48 78 134 151 177 192 200 210 217 216 216 214 216 219 220 222 222 223 225 228 230 232 233 235
291 241 324 145 298 359 348 332 326 325 339 7 14 22 28 30 39 45 50 53 49 60 75 95 123 162 198 210 220 220 215 211 211 213 214 217 221 222 224 224 224 223 227 230
259 303 334 50 311 343 353 350 341 337 342 352 6 15 18 25 32 38 43 51 55 59 66 71 89 102 112 128 184 205 208 209 208 213 215 216 218 219 222 224 226 228 230 227
320 322 309 348 338 347 349 346 340 332 333 338 352 353 2 14 24 28 31 35 44 48 57 60 70 78 84 92 110 127 164 195 209 216 222 217 227 225 220 223 230 230 232 239
354 346 357 10 4 9 10 3 359 356 351 337 340 334 350 359 12 23 25 29 30 30 40 53 55 58 57 57 56 110 178 170 185 179 293 191 224 222 224 228 233 234 235 238
14 11 10 17 360 7 19 19 19 19 17 3 344 329 336 357 9 13 17 18 15 17 26 35 44 47 44 41 43 43 38 76 238 187 206 207 208 212 222 239 243 243 242 237
15 18 21 18 19 24 24 18 18 20 23 18 5 343 337 349 13 13 16 15 10 12 17 18 21 30 32 31 35 38 41 356 342 14 222 242 232 231 228 230 231 234 234 227
17 28 31 30 34 32 31 32 21 19 20 24 29 17 356 348 348 353 354 343 352 355 350 352 355 357 6 9 4 6 12 8 12 0 329 270 228 222 222 218 216 213 209 199
32 27 23 24 23 25 25 22 22 21 18 19 23 24 15 353 305 315 349 349 347 339 335 333 336 336 334 343 341 327 338 346 341 324 307 253 225 209 212 208 216 206 206 210
40 37 34 31 29 25 28 29 30 28 23 20 16 21 23 22 19 1 352 321 317 320 312 314 315 316 314 311 311 306 284 288 299 286 276 271 234 205 196 207 210 211 208 207
40 36 32 34 34 31 33 36 36 41 38 38 40 48 52 51 43 40 16 357 351 342 327 317 309 300 288 278 285 292 292 285 268 261 253 248 240 208 192 199 202 205 206 203
5 27 31 28 27 29 30 29 27 34 39 47 56 60 63 64 66 66 59 42 21 359 341 334 325 298 288 268 258 271 284 280 253 244 241 234 223 211 200 198 203 203 203 202
313 347 13 17 18 19 17 20 25 28 32 39 38 40 46 47 48 49 49 40 25 2 342 333 324 318 299 271 259 265 267 266 264 251 241 233 223 209 199 198 200 202 202 213
277 294 339 5 6 8 8 11 8 15 27 36 36 36 38 42 47 49 44 41 38 27 18 0 347 335 344 308 254 262 268 258 262 264 251 234 220 211 205 200 201 203 208 215
358 322 294 338 359 8 8 14 9 6 358 7 9 10 17 29 39 43 37 33 34 33 31 25 9 350 348 311 251 239 239 250 244 245 239 235 224 211 201 194 197 200 192 184
354 339 334 349 1 14 29 28 29 26 22 28 37 35 34 32 33 40 39 32 41 46 50 46 51 60 72 83 105 135 154 172 181 195 203 197 189 183 180 172 166 160 160 162
142 9 339 82 24 25 36 32 17 21 31 38 37 37 34 36 42 37 39 35 41 50 59 66 62 66 76 84 87 87 87 92 102 107 110 114 113 106 109 115 116 124 122 122
147 89 169 119 22 23 41 35 29 31 23 27 31 35 38 41 43 50 55 51 45 46 54 62 72 79 79 78 76 76 76 77 79 82 86 86 88 91 88 88 89 96 102 103
145 104 167 136 39 25 35 34 38 33 30 34 24 34 36 51 55 52 66 60 58 55 54 58 63 66 74 72 71 75 71 67 66 66 65 65 68 72 72 76 78 82 90 93